#timestamp,LO_Frequency,Hit,StdDev 
1561698015.7,286046997.7,N
1561698035.5,286046996.7,N
1561698055.4,286046997.6,N
1561698075.2,286046997.0,N
1561698095.0,286046996.8,N
1561698095.9,286046996.8,N
1561698115.8,286046997.0,N
1561698135.6,286046997.8,N
1561698155.4,286046995.4,N
1561698175.3,286046995.6,N
1561698195.1,286046996.4,N
1561698196.0,286046996.4,N
1561698215.8,286046993.8,Y
1561698235.7,286046996.7,P
1561698255.5,286046996.5,P
1561698275.3,286046997.7,P
1561698295.2,286046995.3,Y
1561698315.9,286046999.3,P
1561698335.7,286046997.1,N
1561698355.6,286046997.2,N
1561698375.4,286046994.9,Y
1561698395.2,286046998.5,P
1561698415.1,286046999.0,N
1561698416.0,286046999.0,N
1561698435.8,286046998.5,N
1561698455.6,286047001.0,N
1561698475.4,286047000.6,N
1561698495.3,286047002.7,N
1561698515.1,286047000.7,N
1561698535.8,286047000.6,N
1561698555.7,286047000.3,N
1561698575.5,286047000.0,N
1561698595.3,286047000.5,N
1561698615.2,286047001.1,N
1561698635.9,286046999.0,N
1561698655.7,286046997.0,N
1561698675.6,286046997.7,N
1561698695.4,286046997.1,N
1561698715.2,286046997.5,N
1561698735.0,286046997.1,N
1561698735.9,286046997.1,N
1561698755.8,286046999.2,N
1561698775.6,286046998.4,N
1561698795.4,286047001.1,N
1561698815.3,286047000.5,N
1561698835.1,286047000.9,N
1561698855.8,286046998.2,N
1561698875.7,286047001.0,N
1561698895.5,286047001.0,N
1561698915.3,286047000.7,N
1561698935.2,286046998.7,N
1561698955.9,286046998.4,N
1561698975.7,286046999.4,N
1561698995.5,286046996.5,N
1561699015.4,286046996.5,N
1561699035.2,286046997.2,N
1561699055.0,286046997.0,N
1561699055.9,286046997.0,N
1561699075.8,286046997.0,N
1561699095.6,286046997.1,N
1561699115.4,286046996.5,N
1561699135.3,286046998.9,N
1561699155.1,286046999.0,N
1561699156.0,286046999.0,N
1561699175.8,286046996.9,N
1561699195.7,286046997.4,N
1561699215.5,286046995.1,Y
1561699235.3,286046995.3,P
1561699255.2,286046994.0,P
1561699275.9,286046991.9,P
1561699295.7,286046991.9,Y
1561699315.6,286046996.7,P
1561699335.4,286046997.1,P
1561699355.2,286046997.9,N
1561699375.1,286046997.5,N
1561699376.0,286046997.5,N
1561699395.8,286046997.8,N
1561699415.6,286046995.0,Y
1561699435.5,286046998.8,P
1561699455.3,286046999.1,N
1561699475.1,286046996.7,P
1561699495.9,286046997.8,N
1561699515.7,286046997.0,Y
1561699535.5,286046998.2,P
1561699555.4,286046998.1,P
1561699575.2,286046996.6,P
1561699595.0,286046997.1,Y
1561699595.9,286046997.1,P
1561699615.8,286046999.4,N
1561699635.6,286046997.0,P
1561699655.4,286046996.6,Y
1561699675.3,286046999.9,P
1561699695.1,286047000.0,N
1561699696.0,286047000.0,N
1561699715.8,286046998.9,N
1561699735.7,286046998.2,N
1561699755.5,286046998.4,N
1561699775.3,286046999.2,N
1561699795.2,286046997.1,Y
1561699815.9,286046997.0,P
1561699835.7,286046997.4,N
1561699855.5,286046996.9,P
1561699875.4,286046997.5,N
1561699895.2,286046996.8,Y
1561699915.0,286047002.7,P
1561699915.9,286047002.7,N
1561699935.8,286047003.5,N
1561699955.6,286047004.4,N
1561699975.4,286046999.7,N
1561699995.3,286047002.7,N
1561700015.1,286047001.7,N
1561700035.8,286047000.8,N
1561700055.7,286046998.8,N
1561700075.5,286046999.9,N
1561700095.3,286046998.4,N
1561700115.2,286046999.5,N
1561700135.9,286046996.7,N
1561700155.7,286046999.6,N
1561700175.5,286046999.5,N
1561700195.4,286046999.0,N
1561700215.2,286047002.8,N
1561700235.0,286047001.6,N
1561700235.9,286047001.6,N
1561700255.8,286047002.4,N
1561700275.6,286046999.9,N
1561700295.4,286046998.6,N
1561700315.3,286046996.9,N
1561700335.1,286046998.0,N
1561700336.0,286046998.0,N
1561700355.8,286046997.9,N
1561700375.7,286046995.2,N
1561700395.5,286046995.9,N
1561700415.3,286046993.7,N
1561700435.1,286046994.0,N
1561700455.9,286046991.8,Y
1561700475.7,286046993.0,P
1561700495.5,286046990.1,P
1561700515.4,286046992.3,N
1561700535.2,286046990.3,N
1561700555.1,286046988.8,Y
1561700556.0,286046988.8,P
1561700575.8,286046995.2,N
1561700595.6,286046996.4,N
1561700615.4,286046994.6,N
1561700635.3,286046991.8,Y
1561700655.1,286046997.5,P
1561700675.9,286046995.4,N
1561700695.7,286046993.8,P
1561700715.5,286046994.4,Y
1561700735.3,286046998.7,P
1561700755.2,286046998.0,N
1561700775.0,286046995.2,P
1561700775.9,286046995.2,N
1561700795.8,286046993.6,Y
1561700815.6,286046995.5,P
1561700835.4,286046994.2,P
1561700855.2,286046992.4,P
1561700875.1,286046992.8,Y
1561700876.0,286046992.8,P
1561700895.8,286046998.0,N
1561700915.6,286046997.6,N
1561700935.5,286046995.7,N
1561700955.3,286046993.9,Y
1561700975.1,286046995.3,P
1561700995.9,286046996.3,P
1561701015.7,286046991.7,P
1561701035.5,286046990.4,Y
1561701055.4,286046994.5,P
1561701075.2,286046990.9,P
1561701095.0,286046989.7,P
1561701096.0,286046989.7,Y
1561701115.8,286046996.0,P
1561701135.6,286046994.7,P
1561701155.4,286046990.9,P
1561701175.3,286046985.3,Y
1561701195.1,286046992.3,P
1561701215.8,286046991.0,P
1561701235.7,286046988.6,P
1561701255.5,286046988.7,Y
1561701275.3,286046997.0,P
1561701295.2,286046993.3,N
1561701315.0,286046992.9,P
1561701315.9,286046992.9,Y
1561701335.8,286046995.3,P
1561701355.6,286046994.4,P
1561701375.4,286046992.8,P
1561701395.3,286046990.9,Y
1561701415.1,286046996.4,P
1561701416.0,286046996.4,P
1561701435.8,286046992.3,P
1561701455.7,286046990.7,Y
1561701475.5,286046993.6,P
1561701495.3,286046990.3,P
1561701515.1,286046990.0,P
1561701535.9,286046988.4,Y
1561701555.7,286046992.0,P
1561701575.6,286046990.5,P
1561701595.4,286046991.5,P
